Weather in Angarsk

Russia / Irkutsk Oblast     52°32′39″N   103°53′17″E
temp.,
°C
wind,
m/s
gust,
m/s
humid.,
%
clouds,
%
prec.,
mm/h
press.,
hPa
HPBL,
m
6 march, sat
sat623:00−15ese499032 0.0 1026224
02:00−14ese369256 0.0 1027158
05:00−14se1293100 0.0 102769
08:00−15se119284 0.0 103022
11:00−9e12765 0.0 1028209
14:00−4se23803 0.0 1025337
17:00−2ese35879 0.0 1023275
20:00−6ese339010 0.0 102541
7 march, sun
sun723:00−10ese348429 0.0 102465
02:00−11ese338732 0.0 102353
05:00−11ese348763 0.0 102166
08:00−12se228471 0.0 102121
11:00−4se238039 0.0 1019242
14:000se359522 0.0 1017328
17:000ese369186 0.0 1015215
20:00−5se238781 0.0 101827
8 march, mon
mon823:00−7e1289100 0.0 101921
02:00−8nnw1290100 0.0 102022
05:00−10wsw119339 0.0 102121
08:00−10ese119246 0.0 102421
11:00−4nw479351 0.2 1025598
14:00−3nnw468475 0.4 1026812
17:00−3nw228186 0.0 1026639
20:00−10e118951 0.0 102821
9 march, tue
tue923:00−10ese239050 0.0 102746
02:00−11ese369061 0.0 1024108
05:00−9ese4109117 0.0 1021223
08:00−9ese498958 0.0 1021196
11:00−3s238359 0.0 1020341
14:00−2wnw228779 0.0 1020410
17:00−1sw0186100 0.0 1021269
20:00−6nnw019289 0.0 102521
10 march, wed
wed1023:00−8ne119132 0.0 102721
02:00−9ssw009357 0.0 102821
05:00−11wsw019751 0.0 102921
08:00−11ese129653 0.0 102921
11:00−4ese369028 0.0 1025288
14:000se489315 0.0 1021553
17:00+1se48860 0.0 1019394
20:00−4se34870 0.0 102065